TimePDT,TemperatureF,Dew PointF,Humidity,Sea Level PressureIn,VisibilityMPH,Wind Direction,Wind SpeedMPH,Gust SpeedMPH,PrecipitationIn,Events,Conditions,WindDirDegrees,DateUTC
12:53 AM,62.1,52.0,70,30.10,10.0,NNE,5.8,-,N/A,,Overcast,20,2013-08-19 07:53:00
1:53 AM,61.0,52.0,72,30.10,10.0,North,3.5,-,N/A,,Overcast,350,2013-08-19 08:53:00
2:53 AM,61.0,52.0,72,30.09,10.0,Calm,Calm,-,N/A,,Overcast,0,2013-08-19 09:53:00
3:53 AM,61.0,52.0,72,30.09,10.0,NNE,3.5,-,N/A,,Overcast,30,2013-08-19 10:53:00
4:53 AM,61.0,53.1,75,30.09,10.0,NNE,3.5,-,N/A,,Overcast,20,2013-08-19 11:53:00
5:53 AM,60.1,54.0,80,30.10,10.0,NNE,3.5,-,N/A,,Overcast,20,2013-08-19 12:53:00
6:53 AM,61.0,51.1,70,30.10,10.0,ESE,4.6,-,N/A,,Mostly Cloudy,110,2013-08-19 13:53:00
7:53 AM,62.1,51.1,67,30.10,10.0,Variable,3.5,-,N/A,,Mostly Cloudy,0,2013-08-19 14:53:00
8:53 AM,64.0,50.0,60,30.11,10.0,SSE,3.5,-,N/A,,Mostly Cloudy,160,2013-08-19 15:53:00
9:53 AM,66.0,53.1,63,30.12,10.0,WSW,4.6,-,N/A,,Overcast,250,2013-08-19 16:53:00
10:53 AM,66.0,53.1,63,30.12,10.0,Calm,Calm,-,N/A,,Scattered Clouds,0,2013-08-19 17:53:00
11:53 AM,69.1,53.1,57,30.12,10.0,SSE,4.6,-,N/A,,Partly Cloudy,160,2013-08-19 18:53:00
12:53 PM,69.1,54.0,58,30.13,10.0,WSW,9.2,-,N/A,,Partly Cloudy,250,2013-08-19 19:53:00
1:53 PM,71.1,53.1,53,30.12,10.0,West,6.9,-,N/A,,Mostly Cloudy,270,2013-08-19 20:53:00
2:53 PM,73.0,54.0,51,30.11,10.0,Variable,5.8,-,N/A,,Scattered Clouds,0,2013-08-19 21:53:00
3:53 PM,73.0,54.0,51,30.11,10.0,Variable,5.8,-,N/A,,Scattered Clouds,0,2013-08-19 22:53:00
4:53 PM,71.1,54.0,55,30.10,10.0,North,9.2,16.1,N/A,,Partly Cloudy,350,2013-08-19 23:53:00
5:53 PM,69.1,54.0,58,30.10,10.0,NNW,9.2,18.4,N/A,,Clear,340,2013-08-20 00:53:00
6:53 PM,64.0,51.1,63,30.10,10.0,North,9.2,-,N/A,,Mostly Cloudy,350,2013-08-20 01:53:00
7:53 PM,62.1,52.0,70,30.10,10.0,North,5.8,-,N/A,,Overcast,360,2013-08-20 02:53:00
8:53 PM,60.1,48.9,67,30.11,10.0,North,10.4,17.3,N/A,,Mostly Cloudy,360,2013-08-20 03:53:00
9:53 PM,59.0,48.9,69,30.12,10.0,North,9.2,16.1,N/A,,Partly Cloudy,10,2013-08-20 04:53:00
10:53 PM,60.1,48.0,64,30.12,10.0,North,9.2,17.3,N/A,,Overcast,360,2013-08-20 05:53:00
11:53 PM,59.0,48.9,69,30.13,10.0,North,9.2,-,N/A,,Overcast,360,2013-08-20 06:53:00